Time,TemperatureF,DewpointF,PressureIn,WindDirection,WindDirectionDegrees,WindSpeedMPH,WindSpeedGustMPH,Humidity,HourlyPrecipIn,Conditions,Clouds,dailyrainin,SoftwareType,DateUTC
2013-04-04 00:08:00,36.4,23.0,30.32,SE,134,0.0,-999.0,59,-99.99,,,0.00,weatherlink.com 1.10,2013-04-04 05:08:00,
2013-04-04 00:23:00,35.7,24.0,30.31,SE,134,0.0,-999.0,62,-99.99,,,0.00,weatherlink.com 1.10,2013-04-04 05:23:00,
2013-04-04 00:38:00,35.6,24.0,30.31,SE,134,0.0,-999.0,62,-99.99,,,0.00,weatherlink.com 1.10,2013-04-04 05:38:00,
2013-04-04 00:53:00,35.5,23.0,30.30,SE,132,0.0,-999.0,61,-99.99,,,0.00,weatherlink.com 1.10,2013-04-04 05:53:00,
2013-04-04 01:08:00,35.3,23.0,30.30,SE,132,0.0,-999.0,62,-99.99,,,0.00,weatherlink.com 1.10,2013-04-04 06:08:00,
2013-04-04 01:23:00,35.0,23.0,30.30,SE,132,0.0,-999.0,63,-99.99,,,0.00,weatherlink.com 1.10,2013-04-04 06:23:00,
2013-04-04 01:38:00,34.7,23.0,30.29,East,95,0.0,-999.0,63,-99.99,,,0.00,weatherlink.com 1.10,2013-04-04 06:38:00,
2013-04-04 01:53:00,34.4,23.0,30.30,East,92,0.0,-999.0,63,-99.99,,,0.00,weatherlink.com 1.10,2013-04-04 06:53:00,
2013-04-04 02:08:00,34.2,23.0,30.29,East,92,0.0,-999.0,64,-99.99,,,0.00,weatherlink.com 1.10,2013-04-04 07:08:00,
2013-04-04 02:23:00,33.8,23.0,30.28,East,92,0.0,-999.0,65,-99.99,,,0.00,weatherlink.com 1.10,2013-04-04 07:23:00,
2013-04-04 02:38:00,33.5,23.0,30.27,East,93,0.0,-999.0,66,-99.99,,,0.00,weatherlink.com 1.10,2013-04-04 07:38:00,
2013-04-04 02:53:00,33.3,23.0,30.27,East,92,0.0,-999.0,66,-99.99,,,0.00,weatherlink.com 1.10,2013-04-04 07:53:00,
2013-04-04 03:08:00,33.3,23.0,30.26,East,93,0.0,-999.0,66,-99.99,,,0.00,weatherlink.com 1.10,2013-04-04 08:08:00,
2013-04-04 03:23:00,33.3,23.0,30.25,East,93,0.0,-999.0,67,-99.99,,,0.00,weatherlink.com 1.10,2013-04-04 08:23:00,
2013-04-04 03:38:00,33.5,23.0,30.24,East,94,0.0,-999.0,66,-99.99,,,0.00,weatherlink.com 1.10,2013-04-04 08:38:00,
2013-04-04 03:53:00,33.6,23.0,30.24,East,94,0.0,-999.0,65,-99.99,,,0.00,weatherlink.com 1.10,2013-04-04 08:53:00,
2013-04-04 04:09:00,33.5,23.0,30.23,East,94,0.0,-999.0,65,-99.99,,,0.00,weatherlink.com 1.10,2013-04-04 09:09:00,
2013-04-04 04:24:00,33.3,23.0,30.23,East,96,0.0,-999.0,66,-99.99,,,0.00,weatherlink.com 1.10,2013-04-04 09:24:00,
2013-04-04 04:39:00,32.8,23.0,30.23,East,96,0.0,-999.0,67,-99.99,,,0.00,weatherlink.com 1.10,2013-04-04 09:39:00,
2013-04-04 04:54:00,32.4,23.0,30.23,East,96,0.0,-999.0,67,-99.99,,,0.00,weatherlink.com 1.10,2013-04-04 09:54:00,
2013-04-04 05:08:00,32.2,23.0,30.23,East,96,0.0,-999.0,68,-99.99,,,0.00,weatherlink.com 1.10,2013-04-04 10:08:00,
2013-04-04 05:23:00,31.8,23.0,30.22,East,95,0.0,-999.0,69,-99.99,,,0.00,weatherlink.com 1.10,2013-04-04 10:23:00,
2013-04-04 05:38:00,31.7,23.0,30.22,East,101,0.0,-999.0,69,-99.99,,,0.00,weatherlink.com 1.10,2013-04-04 10:38:00,
2013-04-04 05:53:00,31.6,22.0,30.22,East,101,0.0,-999.0,69,-99.99,,,0.00,weatherlink.com 1.10,2013-04-04 10:53:00,
2013-04-04 06:09:00,31.2,22.0,30.22,ESE,112,0.0,-999.0,70,-99.99,,,0.00,weatherlink.com 1.10,2013-04-04 11:09:00,
2013-04-04 06:24:00,30.8,22.0,30.22,ESE,112,0.0,-999.0,71,-99.99,,,0.00,weatherlink.com 1.10,2013-04-04 11:24:00,
2013-04-04 06:39:00,31.0,23.0,30.22,ESE,112,2.0,-999.0,71,-99.99,,,0.00,weatherlink.com 1.10,2013-04-04 11:39:00,
2013-04-04 07:09:00,31.7,23.0,30.22,ESE,113,3.0,-999.0,70,-99.99,,,0.00,weatherlink.com 1.10,2013-04-04 12:09:00,
2013-04-04 07:24:00,32.3,23.0,30.23,ESE,116,2.0,-999.0,69,-99.99,,,0.00,weatherlink.com 1.10,2013-04-04 12:24:00,
2013-04-04 07:39:00,33.0,24.0,30.23,ESE,116,3.0,-999.0,69,-99.99,,,0.00,weatherlink.com 1.10,2013-04-04 12:39:00,
2013-04-04 07:54:00,33.9,24.0,30.22,ESE,121,4.0,-999.0,68,-99.99,,,0.00,weatherlink.com 1.10,2013-04-04 12:54:00,
2013-04-04 08:09:00,35.3,25.0,30.23,SE,128,0.0,-999.0,67,-99.99,,,0.00,weatherlink.com 1.10,2013-04-04 13:09:00,
2013-04-04 08:24:00,37.4,26.0,30.21,SE,143,4.0,-999.0,63,-99.99,,,0.00,weatherlink.com 1.10,2013-04-04 13:24:00,
2013-04-04 08:39:00,39.5,25.0,30.21,South,180,5.0,-999.0,57,-99.99,,,0.00,weatherlink.com 1.10,2013-04-04 13:39:00,
2013-04-04 08:54:00,40.4,25.0,30.21,South,174,3.0,-999.0,54,-99.99,,,0.00,weatherlink.com 1.10,2013-04-04 13:54:00,
2013-04-04 09:24:00,42.4,25.0,30.19,South,175,8.0,-999.0,51,-99.99,,,0.00,weatherlink.com 1.10,2013-04-04 14:24:00,
2013-04-04 09:39:00,43.4,25.0,30.18,SSE,159,5.0,-999.0,49,-99.99,,,0.00,weatherlink.com 1.10,2013-04-04 14:39:00,
2013-04-04 09:54:00,44.5,24.0,30.18,SSE,167,6.0,-999.0,45,-99.99,,,0.00,weatherlink.com 1.10,2013-04-04 14:54:00,
2013-04-04 10:10:00,45.6,24.0,30.17,SSE,163,4.0,-999.0,43,-99.99,,,0.00,weatherlink.com 1.10,2013-04-04 15:10:00,
2013-04-04 10:25:00,46.3,24.0,30.17,SE,142,3.0,-999.0,42,-99.99,,,0.00,weatherlink.com 1.10,2013-04-04 15:25:00,
2013-04-04 10:40:00,47.0,24.0,30.16,WSW,257,2.0,-999.0,40,-99.99,,,0.00,weatherlink.com 1.10,2013-04-04 15:40:00,
2013-04-04 10:55:00,47.2,23.0,30.16,South,190,0.0,-999.0,39,-99.99,,,0.00,weatherlink.com 1.10,2013-04-04 15:55:00,
2013-04-04 11:10:00,47.9,23.0,30.16,West,274,3.0,-999.0,38,-99.99,,,0.00,weatherlink.com 1.10,2013-04-04 16:10:00,
2013-04-04 11:25:00,48.2,24.0,30.16,SSE,158,0.0,-999.0,39,-99.99,,,0.00,weatherlink.com 1.10,2013-04-04 16:25:00,
2013-04-04 11:40:00,50.0,25.0,30.15,NE,45,2.0,-999.0,38,-99.99,,,0.00,weatherlink.com 1.10,2013-04-04 16:40:00,
2013-04-04 11:55:00,51.1,25.0,30.14,NE,42,0.0,-999.0,36,-99.99,,,0.00,weatherlink.com 1.10,2013-04-04 16:55:00,
2013-04-04 12:10:00,51.6,25.0,30.13,ENE,74,0.0,-999.0,35,-99.99,,,0.00,weatherlink.com 1.10,2013-04-04 17:10:00,
2013-04-04 12:25:00,50.7,25.0,30.13,NW,311,0.0,-999.0,37,-99.99,,,0.00,weatherlink.com 1.10,2013-04-04 17:25:00,
2013-04-04 12:40:00,51.4,24.0,30.12,NE,52,0.0,-999.0,35,-99.99,,,0.00,weatherlink.com 1.10,2013-04-04 17:40:00,
2013-04-04 12:55:00,52.5,25.0,30.11,WSW,239,0.0,-999.0,34,-99.99,,,0.00,weatherlink.com 1.10,2013-04-04 17:55:00,
2013-04-04 13:10:00,53.2,25.0,30.10,NW,321,0.0,-999.0,33,-99.99,,,0.00,weatherlink.com 1.10,2013-04-04 18:10:00,
2013-04-04 13:25:00,53.2,26.0,30.09,SE,142,0.0,-999.0,35,-99.99,,,0.00,weatherlink.com 1.10,2013-04-04 18:25:00,
2013-04-04 13:40:00,54.9,26.0,30.09,SE,129,0.0,-999.0,33,-99.99,,,0.00,weatherlink.com 1.10,2013-04-04 18:40:00,
2013-04-04 13:55:00,56.1,28.0,30.07,NNE,15,0.0,-999.0,34,-99.99,,,0.00,weatherlink.com 1.10,2013-04-04 18:55:00,
2013-04-04 14:10:00,54.7,27.0,30.07,NE,51,0.0,-999.0,34,-99.99,,,0.00,weatherlink.com 1.10,2013-04-04 19:10:00,
2013-04-04 14:25:00,55.1,28.0,30.06,WSW,244,3.0,-999.0,35,-99.99,,,0.00,weatherlink.com 1.10,2013-04-04 19:25:00,
2013-04-04 14:40:00,55.3,26.0,30.06,SW,228,1.0,-999.0,33,-99.99,,,0.00,weatherlink.com 1.10,2013-04-04 19:40:00,
2013-04-04 15:11:00,56.0,26.0,30.04,SW,227,4.0,-999.0,31,-99.99,,,0.00,weatherlink.com 1.10,2013-04-04 20:11:00,
2013-04-04 15:41:00,56.1,26.0,30.03,WNW,287,2.0,-999.0,32,-99.99,,,0.00,weatherlink.com 1.10,2013-04-04 20:41:00,
2013-04-04 15:56:00,56.5,27.0,30.02,SW,225,0.0,-999.0,32,-99.99,,,0.00,weatherlink.com 1.10,2013-04-04 20:56:00,
2013-04-04 16:11:00,57.4,27.0,30.03,SW,230,0.0,-999.0,31,-99.99,,,0.00,weatherlink.com 1.10,2013-04-04 21:11:00,
2013-04-04 16:41:00,56.7,26.0,30.02,NW,318,0.0,-999.0,31,-99.99,,,0.00,weatherlink.com 1.10,2013-04-04 21:41:00,
2013-04-04 16:56:00,56.8,27.0,30.01,West,276,3.0,-999.0,32,-99.99,,,0.00,weatherlink.com 1.10,2013-04-04 21:56:00,
2013-04-04 17:56:00,56.8,27.0,30.01,WSW,255,2.0,-999.0,32,-99.99,,,0.00,weatherlink.com 1.10,2013-04-04 22:56:00,
2013-04-04 18:26:00,56.4,27.0,30.01,WNW,289,0.0,-999.0,33,-99.99,,,0.00,weatherlink.com 1.10,2013-04-04 23:26:00,
2013-04-04 20:11:00,50.0,29.0,30.00,WSW,243,0.0,-999.0,44,-99.99,,,0.00,weatherlink.com 1.10,2013-04-05 01:11:00,
2013-04-04 20:26:00,48.9,29.0,30.00,WSW,243,0.0,-999.0,47,-99.99,,,0.00,weatherlink.com 1.10,2013-04-05 01:26:00,
2013-04-04 20:41:00,47.6,29.0,30.00,WSW,243,0.0,-999.0,48,-99.99,,,0.00,weatherlink.com 1.10,2013-04-05 01:41:00,
2013-04-04 20:56:00,46.7,30.0,30.00,WSW,243,0.0,-999.0,52,-99.99,,,0.00,weatherlink.com 1.10,2013-04-05 01:56:00,
2013-04-04 21:56:00,44.0,28.0,30.00,WSW,243,0.0,-999.0,54,-99.99,,,0.00,weatherlink.com 1.10,2013-04-05 02:56:00,
2013-04-04 22:11:00,43.6,28.0,30.00,WSW,243,0.0,-999.0,55,-99.99,,,0.00,weatherlink.com 1.10,2013-04-05 03:11:00,
2013-04-04 22:26:00,43.4,27.0,30.00,WSW,243,0.0,-999.0,53,-99.99,,,0.00,weatherlink.com 1.10,2013-04-05 03:26:00,
2013-04-04 22:41:00,43.6,27.0,30.00,WSW,243,0.0,-999.0,52,-99.99,,,0.00,weatherlink.com 1.10,2013-04-05 03:41:00,
2013-04-04 22:56:00,43.3,27.0,29.99,WSW,243,0.0,-999.0,52,-99.99,,,0.00,weatherlink.com 1.10,2013-04-05 03:56:00,
2013-04-04 23:11:00,43.2,26.0,30.00,WSW,243,0.0,-999.0,51,-99.99,,,0.00,weatherlink.com 1.10,2013-04-05 04:11:00,
2013-04-04 23:26:00,43.3,27.0,30.00,WSW,243,0.0,-999.0,52,-99.99,,,0.00,weatherlink.com 1.10,2013-04-05 04:26:00,
2013-04-04 23:41:00,43.1,27.0,29.99,WSW,243,0.0,-999.0,53,-99.99,,,0.00,weatherlink.com 1.10,2013-04-05 04:41:00,
2013-04-04 23:56:00,42.8,27.0,30.00,WSW,252,0.0,-999.0,54,-99.99,,,0.00,weatherlink.com 1.10,2013-04-05 04:56:00,